DW2778 Weather Reports


time (UTC)temp
F
wind
direction
speed
knots
gust
knots
rain 1hr
in
rain 24hr
in
rain mn
in
humidity
%
barometer
mb
20260507020059 68 360 1.7 4.3 0.00 0.00 0.00 80 1010.6
20260507014559 68 360 0.9 2.6 0.00 0.00 0.00 79 1010.8
20260507013100 68 360 0.9 4.3 0.00 0.00 0.00 79 1010.6
20260507011557 69 360 1.7 4.3 0.00 0.00 0.00 78 1010.6
20260507010052 69 360 1.7 4.3 0.00 0.00 0.00 77 1010.6
20260507004554 70 244 1.7 4.3 0.00 0.00 0.00 76 1010.3
20260507003051 70 245 1.7 6.1 0.00 0.00 0.00 75 1010.3
20260507001556 71 223 2.6 5.2 0.00 0.00 0.00 75 1010.0
20260507000053 71 221 3.5 8.7 0.00 0.00 0.00 74 1009.8
20260506234558 71 234 4.3 7.8 0.00 0.00 0.00 73 1009.9
20260506233055 72 225 4.3 9.6 0.00 0.00 0.00 72 1009.9
20260506231555 72 229 5.2 13.0 0.00 0.00 0.00 71 1009.8
20260506224559 73 198 6.1 14.8 0.00 0.00 0.00 71 1010.0
20260506223050 73 222 7.0 20.0 0.00 0.00 0.00 70 1009.8
20260506221551 73 255 9.6 20.0 0.00 0.00 0.00 70 1009.8
20260506220054 73 208 8.7 19.1 0.00 0.00 0.00 70 1009.6
20260506214550 73 229 12.2 22.6 0.00 0.00 0.00 70 1009.6
20260506213101 73 223 13.0 23.5 0.00 0.00 0.00 71 1009.6
20260506211550 72 212 11.3 22.6 0.00 0.00 0.00 71 1009.6
20260506210054 72 212 10.4 20.9 0.00 0.00 0.00 71 1009.3
20260506204551 72 208 9.6 26.1 0.00 0.00 0.00 71 1009.3
20260506203051 73 209 11.3 23.5 0.00 0.00 0.00 70 1009.1
20260506201555 73 189 11.3 21.7 0.00 0.00 0.00 69 1009.2
20260506200051 74 221 13.9 26.1 0.00 0.00 0.00 69 1009.6
20260506194554 74 204 11.3 22.6 0.00 0.00 0.00 68 1009.7
20260506193051 74 239 10.4 22.6 0.00 0.00 0.00 68 1009.7
20260506191551 74 213 12.2 26.1 0.00 0.00 0.00 67 1010.1
20260506190054 73 198 8.7 26.1 0.00 0.00 0.00 69 1010.3
20260506184555 72 131 12.2 25.2 0.00 0.00 0.00 71 1010.3
20260506183054 71 211 11.3 24.3 0.00 0.00 0.00 73 1010.6
20260506181558 71 219 12.2 25.2 0.00 0.00 0.00 73 1011.0
20260506180053 70 215 9.6 22.6 0.00 0.00 0.00 74 1011.2
20260506174553 71 196 15.6 26.9 0.00 0.00 0.00 72 1011.0
20260506173130 72 187 13.0 25.2 0.00 0.00 0.00 71 1011.1
20260506171622 71 202 9.6 23.5 0.00 0.00 0.00 73 1011.3
20260506170103 70 167 7.0 18.2 0.00 0.00 0.00 72 1011.5
20260506164609 71 180 8.7 33.9 0.00 0.00 0.00 69 1012.0
20260506163105 74 217 13.9 26.1 0.00 0.00 0.00 63 1012.3
20260506161639 75 228 9.6 24.3 0.00 0.00 0.00 60 1012.4
20260506160108 76 227 10.4 23.5 0.00 0.00 0.00 59 1012.4
20260506154600 75 227 14.8 26.1 0.00 0.00 0.00 60 1012.5
20260506153100 74 199 12.2 26.1 0.00 0.00 0.00 61 1012.7
20260506151555 74 176 9.6 24.3 0.00 0.00 0.00 62 1012.5
20260506150056 74 223 10.4 24.3 0.00 0.00 0.00 61 1012.7
20260506144551 75 177 11.3 21.7 0.00 0.00 0.00 61 1012.5
20260506143055 75 189 15.6 26.9 0.00 0.00 0.00 60 1012.6
20260506141553 75 219 13.9 28.7 0.00 0.00 0.00 59 1012.7
20260506140054 74 360 13.0 24.3 0.00 0.00 0.00 62 1012.5
20260506134552 73 222 14.8 26.9 0.00 0.00 0.00 63 1012.8
20260506133052 72 185 14.8 26.1 0.00 0.00 0.00 64 1012.8
20260506131601 71 210 14.8 24.3 0.00 0.00 0.00 65 1012.9
20260506130112 70 360 12.2 21.7 0.00 0.00 0.00 68 1013.0
20260506124558 69 213 9.6 21.7 0.00 0.00 0.00 69 1013.2
20260506123050 69 205 8.7 19.1 0.00 0.00 0.00 70 1013.1
20260506121552 68 360 7.8 19.1 0.00 0.00 0.00 72 1013.1
20260506120056 67 197 8.7 17.4 0.00 0.00 0.00 74 1013.0
20260506114550 66 360 11.3 18.2 0.00 0.00 0.00 74 1013.1
20260506113054 66 212 8.7 17.4 0.00 0.00 0.00 75 1012.9
20260506111553 65 221 8.7 17.4 0.00 0.00 0.00 76 1012.8
20260506110056 64 360 7.8 18.2 0.00 0.00 0.00 78 1012.8
20260506104557 63 360 7.8 13.9 0.00 0.00 0.00 79 1013.0
20260506103059 63 171 8.7 14.8 0.00 0.00 0.00 79 1013.0
20260506101600 62 192 7.0 13.9 0.00 0.00 0.00 80 1013.1
20260506100119 62 186 7.0 14.8 0.00 0.00 0.00 80 1012.9
20260506094553 62 360 5.2 14.8 0.00 0.00 0.00 80 1012.9
20260506093053 62 360 5.2 14.8 0.00 0.00 0.00 80 1013.0
20260506091551 63 360 7.0 13.9 0.00 0.00 0.00 80 1012.9
20260506090054 63 188 7.0 13.0 0.00 0.00 0.00 80 1012.9
20260506084620 63 184 7.8 14.8 0.00 0.00 0.00 80 1013.2
20260506083055 63 360 7.8 13.0 0.00 0.00 0.00 80 1013.2
20260506081554 63 360 7.0 13.9 0.00 0.00 0.00 80 1013.3
20260506073054 64 214 7.0 13.9 0.00 0.00 0.00 78 1013.3
20260506071559 64 360 8.7 17.4 0.00 0.00 0.00 78 1013.3
20260506061553 66 216 8.7 19.1 0.00 0.00 0.00 76 1013.4
20260506060113 66 186 7.8 19.1 0.00 0.00 0.00 76 1013.4
20260506044704 66 198 8.7 19.1 0.00 0.00 0.00 75 1014.0
20260506043110 67 192 9.6 18.2 0.00 0.00 0.00 75 1013.9
20260506041603 67 360 7.8 18.2 0.00 0.00 0.00 74 1013.9
20260506040054 67 86 9.6 16.5 0.00 0.00 0.00 74 1013.8
20260506034627 68 360 7.8 18.2 0.00 0.00 0.00 73 1013.9
20260506033101 68 360 9.6 18.2 0.00 0.00 0.00 72 1013.9
20260506031603 68 360 9.6 20.0 0.00 0.00 0.00 72 1013.9
20260506030053 68 162 7.8 21.7 0.00 0.00 0.00 72 1014.0
20260506024554 68 194 11.3 18.2 0.00 0.00 0.00 72 1013.9
20260506023110 68 360 8.7 19.1 0.00 0.00 0.00 71 1014.0
20260506021553 69 200 11.3 21.7 0.00 0.00 0.00 70 1014.1